This is the latest recevied weather packets stored in our database for station/object KF6TYS-13. If no packets are shown the sender has not sent any weather packets the latest 10 day(s).
| Time | Temp. | Humidity | Pressure | Rain* | Wind** | Luminosity | Snow |
|---|---|---|---|---|---|---|---|
| 1777840223 | 52.78° C | 77% | 1011.9 hPa | 0 mm | - | - | - |
| 1777838422 | 53.33° C | 81% | 1012.1 hPa | 0 mm | - | - | - |
| 1777836622 | 54.44° C | 81% | 1012.2 hPa | 0 mm | - | - | - |
| 1777834822 | 54.44° C | 83% | 1012.2 hPa | 0 mm | - | - | - |
| 1777833020 | 54.44° C | 82% | 1012.1 hPa | 0 mm | - | - | - |
| 1777831219 | 54.44° C | 82% | 1012.3 hPa | 0 mm | - | - | - |
| 1777829417 | 54.44° C | 90% | 1012 hPa | 0 mm | - | - | - |
| 1777827618 | 54.44° C | 95% | 1012 hPa | 0 mm | - | - | - |
| 1777825816 | 54.44° C | 97% | 1011.9 hPa | 0 mm | - | - | - |
| 1777824015 | 53.89° C | 100% | 1011.7 hPa | 0 mm | - | - | - |
| 1777822215 | 53.89° C | 100% | 1011.5 hPa | 0 mm | - | - | - |
| 1777820413 | 53.89° C | 100% | 1011.2 hPa | 0 mm | - | - | - |
| 1777818613 | 53.89° C | 100% | 1010.9 hPa | 0 mm | - | - | - |
| 1777816812 | 53.89° C | 100% | 1010.4 hPa | 0 mm | - | - | - |
| 1777815011 | 53.89° C | 100% | 1010.1 hPa | 0 mm | - | - | - |
| 1777813240 | 53.33° C | 100% | 1010 hPa | 0 mm | - | - | - |
| 1777811409 | 53.33° C | 100% | 1009.8 hPa | 0 mm | - | - | - |
| 1777809638 | 53.89° C | 100% | 1009.7 hPa | 0 mm | - | - | - |
| 1777807807 | 54.44° C | 100% | 1009.8 hPa | 0 mm | - | - | - |
| 1777806037 | 54.44° C | 100% | 1009.8 hPa | 0 mm | - | - | - |
| 1777804205 | 54.44° C | 100% | 1009.8 hPa | 0 mm | - | - | - |
| 1777802434 | 54.44° C | 100% | 1010 hPa | 0 mm | - | - | - |
| 1777800633 | 54.44° C | 100% | 1010.2 hPa | 0 mm | - | - | - |
| 1777798832 | 54.44° C | 100% | 1010.4 hPa | 0 mm | - | - | - |
| 1777797031 | 53.89° C | 100% | 1010.6 hPa | 0 mm | - | - | - |
* Rain latest hour (hover to see other rain measurements)
** Current wind speed in m/s (hover to see current wind gust speed)